Pittsfield, MA

1:13 PM EDT on October 20, 2019 (GMT -0400)
Pittsfield Municipal

Weather History for KPSF - June, 2019

Change the Weather History Date:

Saturday, June 8, 2019

  Actual Average Record
Temperature  
Mean Temperature 64 °F 62 °F  
Max Temperature 80 °F 73 °F 90 °F (1938)
Min Temperature 49 °F 51 °F 35 °F (1932)
Degree Days  
Heating Degree Days 0 5  
Month to date heating degree days 30 44  
Since 1 June heating degree days 30 44  
Since 1 July heating degree days 6935 7404  
Cooling Degree Days 0 2  
Month to date cooling degree days 1 9  
Year to date cooling degree days 7 22  
Since 1 June cooling degree days 1 9  
Growing Degree Days 14 (Base 50)    
Moisture  
Dew Point 46 °F    
Average Humidity 54    
Maximum Humidity 93    
Minimum Humidity 26    
Precipitation  
Precipitation 0.00 in 0.18 in 1.80 in (1935)
Month to date precipitation 0.99 1.44  
Year to date precipitation 18.71 18.48  
Sea Level Pressure  
Sea Level Pressure 30.10 in    
Wind  
Wind Speed 2 mph ()    
Max Wind Speed 14 mph    
Max Gust Speed 16 mph    
Visibility 10.0 miles    
Events      
T = Trace of Precipitation, MM = Missing Value Source: Averaged Metar Reports

Daily Weather History Graph

Daily Weather History Graph

Search for Another Location

Airport or City:

Astronomy

Jun. 08, 2019 Rise Set
Actual Time 5:16 AM EDT 8:28 PM EDT
Civil Twilight 4:41 AM EDT 9:02 PM EDT
Nautical Twilight 3:57 AM EDT 9:47 PM EDT
Astronomical Twilight 3:04 AM EDT 10:41 PM EDT
Moon 10:43 AM EDT (6/8) 12:25 AM EDT (6/8)
Length of Visible Light 16h 21m
Length of Day
15h 12m
Waxing Crescent, 32% of the Moon is Illuminated
Jun 8
Waxing Crescent
Jun 10
First Quarter
Jun 17
Full
Jun 25
Last Quarter
Jul 2
New

Hourly Weather History & Observations

Time (EDT) Temp. Dew Point Humidity Pressure Visibility Wind Dir Wind Speed Gust Speed Precip Events Conditions
12:54 AM 55.9 °F 48.9 °F 77% 29.97 in 10.0 mi West 3.5 mph - N/A   Clear
1:54 AM 54.0 °F 48.0 °F 80% 29.99 in 10.0 mi Calm Calm - N/A   Clear
2:54 AM 52.0 °F 48.0 °F 86% 30.00 in 10.0 mi Calm Calm - N/A   Clear
3:54 AM 51.1 °F 48.0 °F 89% 30.02 in 10.0 mi Calm Calm - N/A   Clear
4:54 AM 51.1 °F 46.9 °F 86% 30.05 in 10.0 mi Calm Calm - N/A   Clear
5:54 AM 50.0 °F 48.0 °F 93% 30.07 in 10.0 mi Calm Calm - N/A   Clear
6:54 AM 55.0 °F 50.0 °F 83% 30.09 in 10.0 mi Calm Calm - N/A   Clear
7:54 AM 61.0 °F 51.1 °F 70% 30.10 in 10.0 mi Variable 3.5 mph - N/A   Clear
8:54 AM 66.9 °F 48.9 °F 52% 30.11 in 10.0 mi Variable 4.6 mph - N/A   Clear
9:54 AM 71.1 °F 46.0 °F 41% 30.11 in 10.0 mi NNE 6.9 mph - N/A   Clear
10:54 AM 73.0 °F 44.1 °F 35% 30.12 in 10.0 mi ENE 8.1 mph - N/A   Clear
11:54 AM 75.0 °F 44.1 °F 33% 30.13 in 10.0 mi Variable 4.6 mph - N/A   Clear
12:54 PM 77.0 °F 46.0 °F 33% 30.12 in 10.0 mi North - - N/A   Clear
1:54 PM 78.1 °F 44.1 °F 30% 30.11 in 10.0 mi Variable 3.5 mph - N/A   Clear
2:54 PM 78.1 °F 43.0 °F 29% 30.11 in 10.0 mi Calm Calm - N/A   Clear
3:54 PM 79.0 °F 46.9 °F 32% 30.11 in 10.0 mi WNW 6.9 mph - N/A   Clear
4:54 PM 78.1 °F 46.0 °F 32% 30.12 in 10.0 mi WNW 11.5 mph - N/A   Clear
5:54 PM 77.0 °F 39.9 °F 26% 30.12 in 10.0 mi WNW 8.1 mph - N/A   Clear
6:54 PM 75.0 °F 39.0 °F 27% 30.13 in 10.0 mi WNW 5.8 mph - N/A   Clear
7:54 PM 73.0 °F 39.0 °F 29% 30.14 in 10.0 mi Calm Calm - N/A   Clear
8:54 PM 64.0 °F 45.0 °F 50% 30.16 in 10.0 mi Calm Calm - N/A   Clear
9:54 PM 62.1 °F 45.0 °F 53% 30.17 in 10.0 mi Calm Calm - N/A   Clear
10:54 PM 59.0 °F 45.0 °F 60% 30.18 in 10.0 mi Calm Calm - N/A   Clear
11:54 PM 57.0 °F 46.0 °F 67% 30.19 in 10.0 mi Calm Calm - N/A   Clear